Date String (YYYY-MM-DD hh:mm:ss) UTC,Instrument flags,absolute air pressure of the measurement (hPa),sample flow rate (lpm),inlet stack bypass flow (lpm),air temperature of the measurement (°C),ambient temperature measured by the external sensor (°C),aerosol sample conditioner tube jacket temperature (°C),OPC LED temperature (°C),internal box temperature (°C),relative humidity of the measurement (%),span deviation,mass concentration of particles derived from Lorenz-Mie calculation of OPC scattering (μg/m³),mass concentration of particles derived from Lorenz-Mie calculation of OPC scattering (μg/m³),mass concentration of particles derived from Lorenz-Mie calculation of OPC scattering (μg/m³)
DateTimeUTC,F1_M11,P_M11,Q1_M11,Q2_M11,T1_M11,T2_M11,T3_M11,T4_M11,T5_M11,U1_M11,ZSPAN_M11,X0_M11,X2_M11,X1_M11
2023-12-18 13:00:00,SystemResetWarning,0833.6,5.00,000.00,019.4,018.5,000.0,027.7,020.7,11.4,0000.0,0006.45,0001.22,0000.99
2023-12-18 13:01:00,SystemResetWarning,0833.5,5.00,000.00,019.4,018.5,000.0,027.7,020.6,11.4,0000.0,0006.16,0001.24,0000.99
2023-12-18 13:02:00,SystemResetWarning,0833.5,5.00,000.00,019.4,018.5,000.0,027.7,020.7,11.4,0000.0,0005.25,0001.24,0000.99
2023-12-18 13:03:00,SystemResetWarning,0833.5,5.00,000.00,019.4,018.5,000.0,027.7,020.7,11.5,0000.0,0004.46,0001.24,0000.99
2023-12-18 13:04:00,SystemResetWarning,0833.5,5.00,000.00,019.4,018.5,000.0,027.7,020.6,11.5,0000.0,0005.01,0001.28,0001.01
2023-12-18 13:05:00,SystemResetWarning,0833.4,5.00,000.00,019.3,018.5,000.0,027.7,020.6,11.5,0000.0,0005.20,0001.28,0001.02
2023-12-18 13:06:00,SystemResetWarning,0833.4,5.00,000.00,019.3,018.4,000.0,027.7,020.6,11.5,0000.0,0004.53,0001.28,0001.02
2023-12-18 13:07:00,SystemResetWarning,0833.4,5.00,000.00,019.3,018.4,000.0,027.7,020.6,11.5,0000.0,0002.79,0001.26,0001.03
2023-12-18 13:08:00,SystemResetWarning,0833.4,5.00,000.00,019.3,018.4,000.0,027.7,020.5,11.6,0000.0,0002.84,0001.28,0001.03
2023-12-18 13:09:00,SystemResetWarning,0833.4,5.01,000.00,019.3,018.4,000.0,027.7,020.5,11.6,0000.0,0002.89,0001.29,0001.03
2023-12-18 13:10:00,SystemResetWarning,0833.5,5.01,000.00,019.3,018.4,000.0,027.7,020.5,11.6,0000.0,0002.99,0001.34,0001.04
2023-12-18 13:11:00,SystemResetWarning,0833.6,5.01,000.00,019.3,018.4,000.0,027.7,020.6,11.6,0000.0,0003.14,0001.37,0001.04
2023-12-18 13:12:00,SystemResetWarning,0833.5,5.01,000.00,019.3,018.4,000.0,027.7,020.6,11.6,0000.0,0003.03,0001.32,0001.04
2023-12-18 13:13:00,SystemResetWarning,0833.6,5.00,000.00,019.3,018.4,000.0,027.7,020.5,11.6,0000.0,0002.96,0001.30,0001.04
2023-12-18 13:14:00,SystemResetWarning,0833.5,5.00,000.00,019.3,018.4,000.0,027.6,020.5,11.7,0000.0,0002.96,0001.31,0001.05
2023-12-18 13:15:00,SystemResetWarning,0833.6,5.00,000.00,019.3,018.4,000.0,027.6,020.6,11.7,0000.0,0002.38,0001.31,0001.06
2023-12-18 13:16:00,SystemResetWarning,0833.6,5.00,000.00,019.3,018.4,000.0,027.6,020.6,11.7,0000.0,0002.86,0001.31,0001.06
2023-12-18 13:17:00,SystemResetWarning,0833.5,5.00,000.00,019.3,018.4,000.0,027.6,020.5,11.8,0000.0,0003.27,0001.29,0001.06
2023-12-18 13:18:00,SystemResetWarning,0833.6,4.99,000.00,019.3,018.4,000.0,027.6,020.6,11.8,0000.0,0003.32,0001.31,0001.06
2023-12-18 13:19:00,SystemResetWarning,0833.6,4.99,000.00,019.3,018.4,000.0,027.6,020.5,11.8,0000.0,0003.37,0001.32,0001.06
2023-12-18 13:20:00,SystemResetWarning,0833.6,5.00,000.00,019.3,018.4,000.0,027.6,020.6,11.8,0000.0,0003.32,0001.30,0001.06
2023-12-18 13:21:00,SystemResetWarning,0833.6,5.01,000.00,019.3,018.4,000.0,027.6,020.5,11.8,0000.0,0003.24,0001.28,0001.06
2023-12-18 13:22:00,SystemResetWarning,0833.6,5.01,000.00,019.3,018.4,000.0,027.6,020.5,11.8,0000.0,0003.12,0001.26,0001.06
2023-12-18 13:23:00,SystemResetWarning,0833.7,5.01,000.00,019.3,018.4,000.0,027.6,020.5,11.8,0000.0,0003.16,0001.30,0001.08
2023-12-18 13:24:00,SystemResetWarning,0833.7,5.00,000.00,019.3,018.4,000.0,027.6,020.5,11.9,0000.0,0005.39,0001.33,0001.09
2023-12-18 13:25:00,SystemResetWarning,0833.7,4.99,000.00,019.3,018.4,000.0,027.6,020.5,11.9,0000.0,0006.67,0001.35,0001.10
2023-12-18 13:26:00,SystemResetWarning,0833.7,4.99,000.00,019.3,018.4,000.0,027.6,020.5,11.9,0000.0,0006.70,0001.37,0001.11
2023-12-18 13:27:00,SystemResetWarning,0833.7,4.99,000.00,019.3,018.4,000.0,027.6,020.5,11.9,0000.0,0006.33,0001.41,0001.13
2023-12-18 13:28:00,SystemResetWarning,0833.7,5.00,000.00,019.3,018.4,000.0,027.6,020.5,11.9,0000.0,0005.55,0001.48,0001.15
2023-12-18 13:29:00,SystemResetWarning,0833.7,5.00,000.00,019.3,018.4,000.0,027.6,020.5,11.9,0000.0,0005.63,0001.51,0001.17
2023-12-18 13:30:00,SystemResetWarning,0833.7,5.01,000.00,019.3,018.4,000.0,027.6,020.5,11.9,0000.0,0006.76,0001.49,0001.19
2023-12-18 13:31:00,SystemResetWarning,0833.7,5.00,000.00,019.2,018.4,000.0,027.6,020.5,11.9,0000.0,0006.86,0001.51,0001.21
2023-12-18 13:32:00,SystemResetWarning,0833.7,5.00,000.00,019.2,018.4,000.0,027.6,020.5,11.9,0000.0,0007.28,0001.52,0001.24
2023-12-18 13:33:00,SystemResetWarning,0833.7,5.00,000.00,019.2,018.4,000.0,027.6,020.4,11.9,0000.0,0007.64,0001.55,0001.25
2023-12-18 13:34:00,SystemResetWarning,0833.7,5.00,000.00,019.2,018.3,000.0,027.6,020.4,11.9,0000.0,0007.69,0001.54,0001.26
2023-12-18 13:35:00,SystemResetWarning,0833.6,5.00,000.00,019.2,018.3,000.0,027.6,020.4,11.9,0000.0,0006.28,0001.57,0001.27
2023-12-18 13:36:00,SystemResetWarning,0833.6,5.00,000.00,019.2,018.3,000.0,027.6,020.4,11.8,0000.0,0005.02,0001.59,0001.28
2023-12-18 13:37:00,SystemResetWarning,0833.6,5.00,000.00,019.2,018.3,000.0,027.5,020.4,11.8,0000.0,0005.01,0001.60,0001.29
2023-12-18 13:38:00,SystemResetWarning,0833.7,5.00,000.00,019.2,018.3,000.0,027.5,020.4,11.8,0000.0,0004.95,0001.58,0001.28
2023-12-18 13:39:00,SystemResetWarning,0833.6,5.00,000.00,019.2,018.3,000.0,027.5,020.4,11.8,0000.0,0005.09,0001.56,0001.28
2023-12-18 13:40:00,SystemResetWarning,0833.7,5.00,000.00,019.2,018.3,000.0,027.5,020.4,11.7,0000.0,0005.11,0001.55,0001.28
2023-12-18 13:41:00,SystemResetWarning,0833.6,5.00,000.00,019.2,018.3,000.0,027.5,020.4,11.7,0000.0,0003.98,0001.55,0001.27
2023-12-18 13:42:00,SystemResetWarning,0833.6,5.01,000.00,019.2,018.2,000.0,027.5,020.4,11.7,0000.0,0003.83,0001.55,0001.26
2023-12-18 13:43:00,SystemResetWarning,0833.6,5.00,000.00,019.1,018.2,000.0,027.5,020.3,11.8,0000.0,0003.57,0001.54,0001.25
2023-12-18 13:44:00,SystemResetWarning,0833.6,5.00,000.00,019.1,018.2,000.0,027.5,020.4,11.8,0000.0,0003.63,0001.52,0001.23
2023-12-18 13:45:00,SystemResetWarning,0833.5,5.00,000.00,019.1,018.2,000.0,027.5,020.3,11.8,0000.0,0004.14,0001.52,0001.23
2023-12-18 13:46:00,SystemResetWarning,0833.5,5.01,000.00,019.1,018.2,000.0,027.5,020.3,11.8,0000.0,0004.09,0001.50,0001.23
2023-12-18 13:47:00,SystemResetWarning,0833.5,5.00,000.00,019.1,018.2,000.0,027.5,020.3,11.8,0000.0,0004.15,0001.51,0001.22
2023-12-18 13:48:00,SystemResetWarning,0833.5,4.99,000.00,019.1,018.2,000.0,027.5,020.3,11.8,0000.0,0004.25,0001.50,0001.21
2023-12-18 13:49:00,SystemResetWarning,0833.5,5.00,000.00,019.1,018.2,000.0,027.5,020.3,11.9,0000.0,0004.26,0001.48,0001.20
2023-12-18 13:50:00,SystemResetWarning,0833.5,5.00,000.00,019.1,018.2,000.0,027.5,020.3,11.9,0000.0,0004.36,0001.45,0001.19
2023-12-18 13:51:00,SystemResetWarning,0833.5,5.00,000.00,019.1,018.1,000.0,027.5,020.3,11.8,0000.0,0004.99,0001.47,0001.18
2023-12-18 13:52:00,SystemResetWarning,0833.5,5.00,000.00,019.1,018.1,000.0,027.4,020.3,11.9,0000.0,0006.19,0001.47,0001.18
2023-12-18 13:53:00,SystemResetWarning,0833.4,5.00,000.00,019.1,018.1,000.0,027.4,020.3,11.9,0000.0,0006.11,0001.44,0001.18
2023-12-18 13:54:00,SystemResetWarning,0833.4,5.01,000.00,019.1,018.1,000.0,027.4,020.3,11.9,0000.0,0006.06,0001.48,0001.18
2023-12-18 13:55:00,SystemResetWarning,0833.4,4.99,000.00,019.1,018.1,000.0,027.4,020.2,11.9,0000.0,0005.37,0001.47,0001.17
2023-12-18 13:56:00,SystemResetWarning,0833.6,5.00,000.00,019.1,018.1,000.0,027.4,020.3,11.9,0000.0,0005.28,0001.46,0001.15
2023-12-18 13:57:00,SystemResetWarning,0833.5,5.00,000.00,019.0,018.1,000.0,027.4,020.3,11.9,0000.0,0005.23,0001.47,0001.15
2023-12-18 13:58:00,SystemResetWarning,0833.6,5.00,000.00,019.0,018.1,000.0,027.4,020.3,11.9,0000.0,0005.23,0001.46,0001.14
2023-12-18 13:59:00,SystemResetWarning,0833.5,5.00,000.00,019.0,018.1,000.0,027.4,020.2,11.9,0000.0,0005.10,0001.45,0001.14
